EW5286 Weather Reports


Display with metric or nautical units.
time (UTC)temp
F
wind
direction
speed
MPH
gust
MPH
rain 1hr
in
rain 24hr
in
rain mn
in
humidity
%
barometer
mb
20260902210941 96 234 6.0 10.0 0.00 0.00 0.00 49 1014.8
20260902210452 96 246 3.0 10.0 0.00 0.00 0.00 50 1014.8
20260902210054 95 224 1.0 10.0 0.00 0.00 0.00 51 1012.9
20260902205943 96 238 2.0 10.0 0.00 0.00 0.00 51 1014.8
20260902205423 95 251 4.0 10.0 0.00 0.00 0.00 50 1014.9
20260902204936 95 172 5.0 10.0 0.00 0.00 0.00 51 1015.1
20260902204548 94 155 4.0 10.0 0.00 0.00 0.00 49 1013.1
20260902204425 95 193 4.0 8.0 0.00 0.00 0.00 50 1015.0
20260902203934 95 202 4.0 10.0 0.00 0.00 0.00 50 1015.1
20260902203437 95 268 5.0 12.0 0.00 0.00 0.00 49 1015.1
20260902203013 94 250 5.0 12.0 0.00 0.00 0.00 49 1013.3
20260902202927 95 193 6.0 12.0 0.00 0.00 0.00 49 1015.2
20260902202440 94 281 4.0 12.0 0.00 0.00 0.00 50 1015.1
20260902201943 95 222 5.0 12.0 0.00 0.00 0.00 49 1015.2
20260902201525 94 204 1.0 10.0 0.00 0.00 0.00 51 1013.2
20260902201432 94 141 2.0 10.0 0.00 0.00 0.00 51 1015.2
20260902200929 94 221 6.0 13.0 0.00 0.00 0.00 51 1015.2
20260902200441 95 229 5.0 13.0 0.00 0.00 0.00 50 1015.3
20260902200034 96 174 4.0 12.0 0.00 0.00 0.00 49 1013.5
20260902195931 96 212 2.0 10.0 0.00 0.00 0.00 50 1015.4
20260902195503 95 207 6.0 11.0 0.00 0.00 0.00 50 1015.4
20260902194924 96 203 5.0 11.0 0.00 0.00 0.00 48 1015.5
20260902194517 96 174 3.0 9.0 0.00 0.00 0.00 49 1013.6
20260902194433 96 239 4.0 9.0 0.00 0.00 0.00 49 1015.5
20260902193944 96 233 4.0 8.0 0.00 0.00 0.00 49 1015.5
20260902193426 95 229 5.0 17.0 0.00 0.00 0.00 51 1015.5
20260902193023 94 189 5.0 17.0 0.00 0.00 0.00 51 1013.8
20260902192939 95 172 5.0 17.0 0.00 0.00 0.00 51 1015.8
20260902192448 96 251 3.0 10.0 0.00 0.00 0.00 49 1015.9
20260902191931 95 136 4.0 10.0 0.00 0.00 0.00 51 1015.8
20260902191532 94 182 4.0 8.0 0.00 0.00 0.00 53 1014.0
20260902191443 94 237 4.0 8.0 0.00 0.00 0.00 52 1015.9
20260902190923 96 160 3.0 12.0 0.00 0.00 0.00 51 1016.1
20260902190435 95 269 4.0 12.0 0.00 0.00 0.00 52 1016.2
20260902190039 94 266 6.0 11.0 0.00 0.00 0.00 52 1014.2
20260902185946 95 213 6.0 11.0 0.00 0.00 0.00 51 1016.2
20260902185427 95 268 4.0 15.0 0.00 0.00 0.00 52 1016.2
20260902184939 94 185 3.0 15.0 0.00 0.00 0.00 54 1016.3
20260902184549 93 212 6.0 15.0 0.00 0.00 0.00 54 1014.4
20260902184427 94 190 4.0 13.0 0.00 0.00 0.00 53 1016.4
20260902183955 94 266 6.0 13.0 0.00 0.00 0.00 53 1016.4
20260902183436 94 203 3.0 10.0 0.00 0.00 0.00 54 1016.5
20260902183011 93 202 5.0 11.0 0.00 0.00 0.00 55 1014.7
20260902182946 93 169 5.0 11.0 0.00 0.00 0.00 55 1016.6
20260902182436 92 237 5.0 13.0 0.00 0.00 0.00 57 1016.5
20260902181948 91 171 8.0 13.0 0.00 0.00 0.00 57 1016.6
20260902181602 92 231 2.0 9.0 0.00 0.00 0.00 56 1014.8
20260902181429 93 171 4.0 9.0 0.00 0.00 0.00 56 1016.8
20260902180940 93 207 5.0 11.0 0.00 0.00 0.00 56 1016.8
20260902180451 92 239 5.0 11.0 0.00 0.00 0.00 58 1016.8
20260902180006 92 249 4.0 12.0 0.00 0.00 0.00 57 1015.1
20260902175932 93 267 5.0 12.0 0.00 0.00 0.00 57 1017.0
20260902175443 93 273 5.0 12.0 0.00 0.00 0.00 56 1017.0
20260902174934 94 269 3.0 8.0 0.00 0.00 0.00 57 1017.1
20260902174556 93 235 2.0 8.0 0.00 0.00 0.00 56 1015.3
20260902174436 93 260 3.0 8.0 0.00 0.00 0.00 56 1017.3
20260902173947 93 176 5.0 9.0 0.00 0.00 0.00 56 1017.3
20260902173439 94 278 6.0 10.0 0.00 0.00 0.00 55 1017.3
20260902173042 93 240 2.0 10.0 0.00 0.00 0.00 57 1015.5
20260902172944 94 176 4.0 10.0 0.00 0.00 0.00 56 1017.4
20260902172426 93 231 3.0 10.0 0.00 0.00 0.00 57 1017.5
20260902171944 93 259 4.0 13.0 0.00 0.00 0.00 57 1017.5
20260902171507 92 201 4.0 13.0 0.00 0.00 0.00 58 1015.7
20260902171444 92 204 4.0 13.0 0.00 0.00 0.00 59 1017.5
20260902170935 92 219 4.0 12.0 0.00 0.00 0.00 58 1017.6
20260902170447 91 224 6.0 14.0 0.00 0.00 0.00 59 1017.7
20260902170058 91 243 5.0 14.0 0.00 0.00 0.00 58 1015.8
20260902165928 92 226 4.0 14.0 0.00 0.00 0.00 58 1017.8
20260902165440 92 194 6.0 13.0 0.00 0.00 0.00 58 1017.7
20260902164923 92 203 6.0 11.0 0.00 0.00 0.00 57 1017.9
20260902164504 92 245 4.0 9.0 0.00 0.00 0.00 57 1016.0
20260902164432 93 180 3.0 9.0 0.00 0.00 0.00 57 1017.9
20260902163938 92 248 2.0 10.0 0.00 0.00 0.00 58 1017.9
20260902163449 92 236 1.0 11.0 0.00 0.00 0.00 59 1018.0
20260902163056 91 176 4.0 11.0 0.00 0.00 0.00 59 1016.1
20260902162929 91 184 3.0 11.0 0.00 0.00 0.00 60 1018.0
20260902162437 92 226 4.0 8.0 0.00 0.00 0.00 59 1018.0
20260902161928 92 195 4.0 8.0 0.00 0.00 0.00 59 1018.1
20260902161552 91 276 4.0 7.0 0.00 0.00 0.00 59 1016.2
20260902161425 92 229 2.0 6.0 0.00 0.00 0.00 60 1018.1
20260902160936 92 224 3.0 5.0 0.00 0.00 0.00 59 1018.1
20260902160447 92 243 1.0 6.0 0.00 0.00 0.00 59 1018.2
20260902160058 90 252 1.0 8.0 0.00 0.00 0.00 62 1016.3
20260902155956 91 221 3.0 8.0 0.00 0.00 0.00 61 1018.1
20260902155436 90 266 4.0 8.0 0.00 0.00 0.00 61 1018.1
20260902154927 90 217 4.0 8.0 0.00 0.00 0.00 60 1018.1
20260902154549 90 191 2.0 7.0 0.00 0.00 0.00 61 1016.2
20260902154439 90 154 3.0 7.0 0.00 0.00 0.00 61 1018.0
20260902153947 90 214 3.0 7.0 0.00 0.00 0.00 60 1018.0
20260902153430 90 236 1.0 4.0 0.00 0.00 0.00 63 1018.0
20260902153031 88 196 1.0 5.0 0.00 0.00 0.00 64 1016.1
20260902153002 89 257 1.0 5.0 0.00 0.00 0.00 63 1018.0
20260902152430 88 253 2.0 5.0 0.00 0.00 0.00 64 1018.0
20260902151933 88 262 3.0 4.0 0.00 0.00 0.00 64 1017.9
20260902151516 88 293 2.0 4.0 0.00 0.00 0.00 64 1016.0
20260902151422 88 256 2.0 4.0 0.00 0.00 0.00 65 1017.9
20260902150923 88 204 1.0 3.0 0.00 0.00 0.00 64 1017.9
20260902150500 87 226 1.0 3.0 0.00 0.00 0.00 65 1017.9
20260902150106 86 278 1.0 3.0 0.00 0.00 0.00 65 1016.2
20260902145949 87 205 1.0 3.0 0.00 0.00 0.00 65 1018.0
20260902145449 86 221 1.0 5.0 0.00 0.00 0.00 65 1018.1
20260902144940 86 219 2.0 5.0 0.00 0.00 0.00 65 1018.1
20260902144535 86 200 1.0 4.0 0.00 0.00 0.00 66 1016.2
20260902144427 86 198 1.0 4.0 0.00 0.00 0.00 67 1018.0
20260902143939 85 238 1.0 4.0 0.00 0.00 0.00 68 1018.0
20260902143451 85 192 2.0 3.0 0.00 0.00 0.00 67 1018.0
20260902143013 84 247 0.0 3.0 0.00 0.00 0.00 69 1016.1
20260902142931 85 219 0.0 3.0 0.00 0.00 0.00 69 1018.0
20260902142441 84 263 1.0 3.0 0.00 0.00 0.00 69 1018.0
20260902141942 84 277 1.0 4.0 0.00 0.00 0.00 71 1018.0
20260902141611 83 254 0.0 4.0 0.00 0.00 0.00 72 1016.1
20260902141442 83 250 1.0 4.0 0.00 0.00 0.00 72 1018.0
20260902140943 83 228 1.0 2.0 0.00 0.00 0.00 73 1018.1
20260902140429 82 257 1.0 1.0 0.00 0.00 0.00 74 1018.0
20260902140036 82 269 0.0 1.0 0.00 0.00 0.00 74 1016.1
20260902135940 82 246 0.0 1.0 0.00 0.00 0.00 75 1017.9
20260902135428 82 269 1.0 1.0 0.00 0.00 0.00 75 1018.0
20260902134930 81 269 1.0 1.0 0.00 0.00 0.00 75 1018.0
20260902134515 80 285 0.0 1.0 0.00 0.00 0.00 76 1016.1
20260902134442 81 285 0.0 1.0 0.00 0.00 0.00 76 1017.9
20260902133921 80 272 0.0 0.0 0.00 0.00 0.00 77 1018.0
20260902133503 80 274 0.0 0.0 0.00 0.00 0.00 78 1018.0
20260902133111 79 274 0.0 0.0 0.00 0.00 0.00 78 1016.3
20260902132923 80 274 0.0 0.0 0.00 0.00 0.00 78 1018.1
20260902132434 79 274 0.0 1.0 0.00 0.00 0.00 79 1017.9
20260902131947 79 276 0.0 1.0 0.00 0.00 0.00 79 1017.9
20260902131551 78 278 0.0 1.0 0.00 0.00 0.00 80 1016.1
20260902131427 78 278 0.0 1.0 0.00 0.00 0.00 79 1017.9
20260902130939 78 278 0.0 0.0 0.00 0.00 0.00 79 1017.9
20260902130450 78 281 0.0 0.0 0.00 0.00 0.00 79 1017.9
20260902130100 77 281 0.0 0.0 0.00 0.00 0.00 80 1016.0
20260902125931 78 286 0.0 0.0 0.00 0.00 0.00 80 1017.8
20260902125422 78 286 0.0 0.0 0.00 0.00 0.00 80 1017.8
20260902124925 77 286 0.0 0.0 0.00 0.00 0.00 80 1017.8
20260902124503 77 287 0.0 0.0 0.00 0.00 0.00 80 1015.9
20260902124452 77 287 0.0 0.0 0.00 0.00 0.00 80 1017.7
20260902123923 77 288 0.0 0.0 0.00 0.00 0.00 80 1017.6
20260902123435 77 288 0.0 0.0 0.00 0.00 0.00 80 1017.5
20260902123056 76 288 0.0 0.0 0.00 0.00 0.00 81 1015.7
20260902122936 77 288 0.0 0.0 0.00 0.00 0.00 81 1017.5
20260902122421 77 288 0.0 0.0 0.00 0.00 0.00 81 1017.5
20260902121933 77 288 0.0 0.0 0.00 0.00 0.00 81 1017.5
20260902121541 76 288 0.0 1.0 0.00 0.00 0.00 81 1015.7
20260902121444 77 288 0.0 1.0 0.00 0.00 0.00 81 1017.5
20260902120925 77 259 1.0 1.0 0.00 0.00 0.00 81 1017.4
20260902120457 77 266 0.0 1.0 0.00 0.00 0.00 81 1017.3
20260902120021 76 268 0.0 1.0 0.00 0.00 0.00 81 1015.4
20260902115925 77 268 0.0 1.0 0.00 0.00 0.00 81 1017.3
20260902115427 77 268 0.0 1.0 0.00 0.00 0.00 81 1017.2
20260902114939 77 266 0.0 1.0 0.00 0.00 0.00 81 1017.2
20260902114528 76 258 1.0 1.0 0.00 0.00 0.00 81 1015.4
20260902114429 77 257 1.0 1.0 0.00 0.00 0.00 81 1017.1
20260902114000 76 258 0.0 1.0 0.00 0.00 0.00 82 1017.1
20260902113422 77 257 0.0 1.0 0.00 0.00 0.00 82 1017.1
20260902113018 76 253 0.0 1.0 0.00 0.00 0.00 82 1015.2
20260902112928 76 253 1.0 1.0 0.00 0.00 0.00 82 1017.0
20260902112440 76 253 1.0 1.0 0.00 0.00 0.00 82 1016.9
20260902112011 77 253 1.0 1.0 0.00 0.00 0.00 81 1016.9
20260902111501 76 253 0.0 1.0 0.00 0.00 0.00 81 1015.1
20260902111449 77 252 0.0 1.0 0.00 0.00 0.00 81 1017.0
20260902110940 77 253 0.0 1.0 0.00 0.00 0.00 80 1017.0
20260902110105 77 253 0.0 1.0 0.00 0.00 0.00 79 1015.0
20260902105943 78 253 0.0 1.0 0.00 0.00 0.00 79 1016.9
20260902105429 78 253 0.0 1.0 0.00 0.00 0.00 79 1016.9
20260902104943 78 246 0.0 1.0 0.00 0.00 0.00 79 1016.9
20260902104512 77 246 0.0 2.0 0.00 0.00 0.00 79 1015.0
20260902104422 78 246 1.0 2.0 0.00 0.00 0.00 78 1016.8
20260902103932 78 246 1.0 2.0 0.00 0.00 0.00 78 1016.8
20260902103424 78 245 1.0 3.0 0.00 0.00 0.00 78 1016.7
20260902103039 78 247 1.0 3.0 0.00 0.00 0.00 78 1014.9
20260902102935 78 252 2.0 3.0 0.00 0.00 0.00 78 1016.7
20260902102437 79 245 2.0 3.0 0.00 0.00 0.00 77 1016.7
20260902101929 79 240 2.0 4.0 0.00 0.00 0.00 77 1016.8
20260902101546 78 242 2.0 4.0 0.00 0.00 0.00 77 1015.0
20260902101455 79 248 3.0 4.0 0.00 0.00 0.00 77 1016.8
20260902100941 79 241 3.0 4.0 0.00 0.00 0.00 77 1016.8
20260902100422 79 243 3.0 4.0 0.00 0.00 0.00 77 1016.7
20260902100005 78 240 3.0 5.0 0.00 0.00 0.00 77 1014.8
20260902095931 79 240 3.0 5.0 0.00 0.00 0.00 77 1016.7
20260902095425 79 243 4.0 5.0 0.00 0.00 0.00 76 1016.7
20260902094925 79 233 4.0 5.0 0.00 0.00 0.00 76 1016.6
20260902094511 79 238 3.0 5.0 0.00 0.00 0.00 76 1014.7
20260902094434 79 239 4.0 5.0 0.00 0.00 0.00 76 1016.6
20260902093926 80 238 4.0 6.0 0.00 0.00 0.00 75 1016.6
20260902093437 80 240 4.0 6.0 0.00 0.00 0.00 75 1016.5
20260902093106 79 238 4.0 6.0 0.00 0.00 0.00 75 1014.6
20260902092939 80 239 4.0 6.0 0.00 0.00 0.00 75 1016.4
20260902092429 80 242 4.0 6.0 0.00 0.00 0.00 75 1016.5
20260902091941 80 246 4.0 6.0 0.00 0.00 0.00 74 1016.4
20260902091504 80 239 3.0 6.0 0.00 0.00 0.00 74 1014.5
20260902091421 81 241 4.0 6.0 0.00 0.00 0.00 74 1016.4
20260902090932 81 238 4.0 7.0 0.00 0.00 0.00 73 1016.5
20260902090435 81 240 5.0 7.0 0.00 0.00 0.00 73 1016.5
20260902090010 80 242 4.0 7.0 0.00 0.00 0.00 74 1014.7
20260902085925 81 239 4.0 6.0 0.00 0.00 0.00 74 1016.5
20260902085430 81 240 4.0 6.0 0.00 0.00 0.00 74 1016.5
20260902084933 81 239 4.0 5.0 0.00 0.00 0.00 74 1016.4
20260902084516 80 240 3.0 4.0 0.00 0.00 0.00 74 1014.5
20260902084422 81 240 4.0 4.0 0.00 0.00 0.00 74 1016.4
20260902083931 81 241 3.0 4.0 0.00 0.00 0.00 74 1016.4
20260902083442 81 241 3.0 5.0 0.00 0.00 0.00 74 1016.3
20260902083043 80 240 3.0 5.0 0.00 0.00 0.00 74 1014.5
20260902082923 81 241 3.0 5.0 0.00 0.00 0.00 74 1016.4
20260902082504 80 240 4.0 4.0 0.00 0.00 0.00 75 1016.3
20260902081926 80 241 4.0 4.0 0.00 0.00 0.00 75 1016.3
20260902081534 80 242 2.0 3.0 0.00 0.00 0.00 75 1014.4
20260902081456 80 242 3.0 3.0 0.00 0.00 0.00 75 1016.3
20260902080924 80 243 3.0 3.0 0.00 0.00 0.00 75 1016.3
20260902080435 80 243 3.0 3.0 0.00 0.00 0.00 75 1016.3
20260902080112 80 239 3.0 3.0 0.00 0.00 0.00 75 1014.5
20260902075935 80 239 3.0 3.0 0.00 0.00 0.00 75 1016.3
20260902075425 80 236 3.0 3.0 0.00 0.00 0.00 75 1016.3
20260902074924 80 234 2.0 3.0 0.00 0.00 0.00 75 1016.3
20260902074502 80 238 2.0 3.0 0.00 0.00 0.00 75 1014.4
20260902074434 81 238 3.0 3.0 0.00 0.00 0.00 75 1016.3
20260902073924 81 242 3.0 3.0 0.00 0.00 0.00 75 1016.4
20260902073426 81 248 3.0 3.0 0.00 0.00 0.00 75 1016.4
20260902073010 80 242 2.0 4.0 0.00 0.00 0.00 75 1014.5
20260902072939 81 242 2.0 4.0 0.00 0.00 0.00 75 1016.4
20260902072428 81 241 3.0 4.0 0.00 0.00 0.00 74 1016.4
20260902071938 81 242 3.0 4.0 0.00 0.00 0.00 74 1016.5
20260902071615 81 243 2.0 4.0 0.00 0.00 0.00 74 1014.7
20260902071440 81 243 3.0 4.0 0.00 0.00 0.00 74 1016.6
20260902070931 81 243 3.0 5.0 0.00 0.00 0.00 74 1016.5
20260902070443 81 247 4.0 5.0 0.00 0.00 0.00 73 1016.5
20260902070006 81 239 3.0 5.0 0.00 0.00 0.00 73 1014.7
20260902065924 82 239 4.0 5.0 0.00 0.00 0.00 73 1016.5
20260902065454 82 223 4.0 5.0 0.00 0.00 0.00 73 1016.5
20260902064923 82 238 4.0 6.0 0.00 0.00 0.00 73 1016.5
20260902064530 82 233 3.0 6.0 0.00 0.00 0.00 72 1014.6
20260902064433 82 238 3.0 6.0 0.00 0.00 0.00 72 1016.5
20260902063935 82 236 4.0 6.0 0.00 0.00 0.00 72 1016.5
20260902063442 82 239 5.0 6.0 0.00 0.00 0.00 72 1016.5
20260902063024 82 239 4.0 5.0 0.00 0.00 0.00 72 1014.6
20260902062931 82 240 4.0 5.0 0.00 0.00 0.00 72 1016.5
20260902062443 83 240 4.0 5.0 0.00 0.00 0.00 71 1016.4
20260902061922 83 240 4.0 5.0 0.00 0.00 0.00 71 1016.4
20260902061612 82 239 4.0 5.0 0.00 0.00 0.00 71 1014.5
20260902061503 83 237 4.0 9.0 0.00 0.00 0.00 71 1016.4
20260902060921 83 234 4.0 9.0 0.00 0.00 0.00 70 1016.4
20260902060433 83 239 4.0 7.0 0.00 0.00 0.00 70 1016.4
20260902060049 83 231 4.0 7.0 0.00 0.00 0.00 70 1014.5
20260902055932 83 239 5.0 7.0 0.00 0.00 0.00 70 1016.4
20260902055424 83 234 4.0 7.0 0.00 0.00 0.00 69 1016.3
20260902054936 84 237 4.0 7.0 0.00 0.00 0.00 69 1016.3
20260902054600 83 240 4.0 8.0 0.00 0.00 0.00 69 1014.3
20260902054439 84 194 5.0 8.0 0.00 0.00 0.00 69 1016.3
20260902053928 83 239 5.0 8.0 0.00 0.00 0.00 69 1016.2
20260902053438 83 240 4.0 5.0 0.00 0.00 0.00 69 1016.2
20260902053104 83 227 4.0 5.0 0.00 0.00 0.00 69 1014.3
20260902052940 83 239 4.0 6.0 0.00 0.00 0.00 69 1016.2
20260902052430 83 239 4.0 7.0 0.00 0.00 0.00 68 1016.1
20260902051942 84 236 3.0 7.0 0.00 0.00 0.00 68 1016.0
20260902051549 83 215 4.0 7.0 0.00 0.00 0.00 68 1014.1
20260902051447 84 226 4.0 7.0 0.00 0.00 0.00 68 1016.0
20260902050929 84 221 4.0 6.0 0.00 0.00 0.00 68 1016.0
20260902050440 84 240 3.0 6.0 0.00 0.00 0.00 68 1015.9
20260902050056 83 219 3.0 6.0 0.00 0.00 0.00 67 1014.1
20260902045939 84 211 4.0 6.0 0.00 0.00 0.00 67 1015.9
20260902045429 84 223 4.0 7.0 0.00 0.00 0.00 67 1016.0
20260902044941 84 227 4.0 7.0 0.00 0.00 0.00 67 1016.0
20260902044600 84 212 3.0 6.0 0.00 0.00 0.00 67 1014.1
20260902044421 84 228 3.0 6.0 0.00 0.00 0.00 67 1016.0
20260902043932 84 230 4.0 8.0 0.00 0.00 0.00 66 1016.0
20260902043424 84 231 4.0 8.0 0.00 0.00 0.00 66 1016.0
20260902043053 84 231 3.0 6.0 0.00 0.00 0.00 66 1014.0
20260902042924 84 230 4.0 6.0 0.00 0.00 0.00 66 1015.9
20260902042455 84 216 4.0 6.0 0.00 0.00 0.00 66 1015.9
20260902041925 84 233 4.0 6.0 0.00 0.00 0.00 65 1015.9
20260902041539 84 231 3.0 6.0 0.00 0.00 0.00 65 1014.1
20260902041434 85 224 3.0 6.0 0.00 0.00 0.00 65 1015.9
20260902040944 85 232 4.0 5.0 0.00 0.00 0.00 65 1016.0
20260902040426 85 237 3.0 5.0 0.00 0.00 0.00 64 1016.0
20260902040018 84 214 3.0 6.0 0.00 0.00 0.00 64 1014.1
20260902035952 85 223 4.0 6.0 0.00 0.00 0.00 64 1016.0
20260902035423 85 233 3.0 6.0 0.00 0.00 0.00 64 1016.1
20260902034926 85 219 3.0 6.0 0.00 0.00 0.00 63 1016.0
20260902034504 85 217 2.0 6.0 0.00 0.00 0.00 63 1014.1
20260902034435 85 202 3.0 6.0 0.00 0.00 0.00 63 1016.0
20260902033927 85 268 3.0 6.0 0.00 0.00 0.00 62 1015.9
20260902033429 86 213 4.0 6.0 0.00 0.00 0.00 62 1015.9
20260902033013 85 199 3.0 7.0 0.00 0.00 0.00 62 1014.0
20260902033002 86 218 3.0 7.0 0.00 0.00 0.00 62 1015.9
20260902032430 86 218 3.0 7.0 0.00 0.00 0.00 61 1015.9
20260902031943 86 200 3.0 7.0 0.00 0.00 0.00 61 1015.9
20260902031601 85 236 3.0 7.0 0.00 0.00 0.00 61 1014.0
20260902031443 86 221 4.0 7.0 0.00 0.00 0.00 61 1015.8
20260902030932 86 229 3.0 6.0 0.00 0.00 0.00 60 1015.9
20260902030426 86 219 3.0 7.0 0.00 0.00 0.00 60 1015.8
20260902030048 86 233 2.0 7.0 0.00 0.00 0.00 60 1013.9
20260902025926 86 281 3.0 7.0 0.00 0.00 0.00 60 1015.8
20260902025447 86 210 3.0 6.0 0.00 0.00 0.00 59 1015.7
20260902024928 86 239 3.0 6.0 0.00 0.00 0.00 59 1015.7
20260902024534 86 225 2.0 6.0 0.00 0.00 0.00 59 1013.9
20260902024434 86 146 3.0 6.0 0.00 0.00 0.00 59 1015.6
20260902023945 87 236 2.0 6.0 0.00 0.00 0.00 58 1015.6
20260902023035 86 216 2.0 6.0 0.00 0.00 0.00 58 1013.7
20260902022926 87 195 2.0 6.0 0.00 0.00 0.00 58 1015.6
20260902022428 87 233 2.0 7.0 0.00 0.00 0.00 57 1015.6
20260902021958 87 257 2.0 7.0 0.00 0.00 0.00 56 1015.5
20260902021518 87 195 2.0 6.0 0.00 0.00 0.00 56 1013.5
20260902021447 88 226 3.0 6.0 0.00 0.00 0.00 56 1015.4
20260902020937 88 214 2.0 6.0 0.00 0.00 0.00 55 1015.3
20260902020449 88 228 2.0 6.0 0.00 0.00 0.00 54 1015.2
20260902020003 88 219 2.0 6.0 0.00 0.00 0.00 53 1013.3
20260902015930 88 266 2.0 6.0 0.00 0.00 0.00 53 1015.1
20260902015442 88 240 3.0 6.0 0.00 0.00 0.00 53 1015.0
20260902014926 88 190 2.0 6.0 0.00 0.00 0.00 53 1015.0
20260902014521 88 218 2.0 6.0 0.00 0.00 0.00 53 1013.1
20260902014435 88 239 3.0 7.0 0.00 0.00 0.00 53 1014.9
20260902013946 88 276 3.0 7.0 0.00 0.00 0.00 54 1014.9
20260902013452 88 181 2.0 6.0 0.00 0.00 0.00 54 1014.9
20260902013042 88 254 2.0 6.0 0.00 0.00 0.00 55 1013.0
20260902012942 89 195 2.0 6.0 0.00 0.00 0.00 55 1014.9
20260902012423 89 217 3.0 6.0 0.00 0.00 0.00 54 1014.8
20260902011935 89 192 2.0 6.0 0.00 0.00 0.00 54 1014.9
20260902011556 88 216 2.0 6.0 0.00 0.00 0.00 54 1012.9
20260902011446 89 216 3.0 6.0 0.00 0.00 0.00 54 1014.9
20260902010925 89 240 2.0 6.0 0.00 0.00 0.00 54 1014.9
20260902010437 89 212 2.0 4.0 0.00 0.00 0.00 54 1014.8
20260902010118 89 187 1.0 5.0 0.00 0.00 0.00 54 1013.0
20260902005950 89 223 2.0 5.0 0.00 0.00 0.00 54 1014.9
20260902005430 89 205 2.0 5.0 0.00 0.00 0.00 55 1014.9
20260902004942 89 278 2.0 6.0 0.00 0.00 0.00 55 1014.9
20260902004602 89 254 1.0 7.0 0.00 0.00 0.00 55 1013.1
20260902004423 90 288 3.0 7.0 0.00 0.00 0.00 55 1014.9
20260902003935 90 233 2.0 7.0 0.00 0.00 0.00 55 1014.9
20260902003446 90 194 2.0 6.0 0.00 0.00 0.00 55 1014.9
20260902003005 90 243 2.0 5.0 0.00 0.00 0.00 55 1013.2
20260902002946 90 216 2.0 5.0 0.00 0.00 0.00 55 1015.0
20260902002437 90 230 1.0 5.0 0.00 0.00 0.00 55 1015.0
20260902001928 91 155 2.0 5.0 0.00 0.00 0.00 54 1015.1
20260902001557 91 266 1.0 4.0 0.00 0.00 0.00 54 1013.1
20260902001500 91 206 2.0 4.0 0.00 0.00 0.00 54 1015.0
20260902000936 91 283 1.0 7.0 0.00 0.00 0.00 53 1015.0
20260902000429 92 249 2.0 8.0 0.00 0.00 0.00 52 1015.1
20260902000045 91 215 3.0 8.0 0.00 0.00 0.00 52 1013.1
20260901235936 92 201 3.0 7.0 0.00 0.00 0.00 52 1015.0
20260901235438 92 221 2.0 7.0 0.00 0.00 0.00 51 1015.1
20260901234929 92 256 3.0 8.0 0.00 0.00 0.00 50 1015.2
20260901234548 92 213 3.0 8.0 0.00 0.00 0.00 49 1013.3
20260901234430 93 264 3.0 8.0 0.00 0.00 0.00 49 1015.2
20260901233922 93 250 4.0 8.0 0.00 0.00 0.00 50 1015.2
20260901233433 93 252 3.0 6.0 0.00 0.00 0.00 50 1015.2
20260901233100 93 243 2.0 6.0 0.00 0.00 0.00 49 1013.2
20260901232933 93 259 2.0 9.0 0.00 0.00 0.00 49 1015.1
20260901232444 94 244 2.0 9.0 0.00 0.00 0.00 48 1015.2
20260901231935 94 251 2.0 10.0 0.00 0.00 0.00 47 1015.2
20260901231552 93 241 2.0 10.0 0.00 0.00 0.00 47 1013.3
20260901231446 94 163 4.0 10.0 0.00 0.00 0.00 46 1015.2
20260901230927 94 243 4.0 9.0 0.00 0.00 0.00 46 1015.2
20260901230438 94 235 3.0 9.0 0.00 0.00 0.00 46 1015.3
20260901230030 94 250 4.0 9.0 0.00 0.00 0.00 46 1013.4
20260901225927 94 238 3.0 9.0 0.00 0.00 0.00 46 1015.2
20260901225457 95 180 4.0 9.0 0.00 0.00 0.00 46 1015.2
20260901224945 95 242 4.0 11.0 0.00 0.00 0.00 46 1015.3
20260901224507 94 163 2.0 11.0 0.00 0.00 0.00 46 1013.3
20260901224444 95 240 2.0 11.0 0.00 0.00 0.00 46 1015.2
20260901223933 95 273 4.0 11.0 0.00 0.00 0.00 45 1015.1
20260901223446 95 219 4.0 10.0 0.00 0.00 0.00 45 1015.1
20260901223058 95 283 4.0 10.0 0.00 0.00 0.00 44 1013.2
20260901222927 95 242 5.0 10.0 0.00 0.00 0.00 44 1015.0
20260901222436 95 153 5.0 10.0 0.00 0.00 0.00 46 1015.0
20260901221947 96 215 3.0 8.0 0.00 0.00 0.00 45 1015.0
20260901221541 96 246 3.0 8.0 0.00 0.00 0.00 45 1013.2
20260901221425 96 194 4.0 7.0 0.00 0.00 0.00 45 1015.1
20260901220937 96 300 1.0 8.0 0.00 0.00 0.00 45 1015.1
20260901220428 96 210 2.0 9.0 0.00 0.00 0.00 45 1015.1
20260901220051 96 231 2.0 9.0 0.00 0.00 0.00 45 1013.3
20260901215929 96 187 4.0 10.0 0.00 0.00 0.00 44 1015.2
20260901215421 97 180 6.0 10.0 0.00 0.00 0.00 40 1015.2
20260901214932 97 235 1.0 8.0 0.00 0.00 0.00 44 1015.2
20260901214555 96 240 3.0 10.0 0.00 0.00 0.00 44 1013.3
20260901214432 96 223 6.0 10.0 0.00 0.00 0.00 44 1015.2
20260901213924 97 244 6.0 10.0 0.00 0.00 0.00 43 1015.3
20260901213456 97 240 3.0 9.0 0.00 0.00 0.00 42 1015.4
20260901213045 96 236 3.0 11.0 0.00 0.00 0.00 43 1013.5
20260901212943 97 240 4.0 11.0 0.00 0.00 0.00 44 1015.4
20260901212423 97 229 4.0 11.0 0.00 0.00 0.00 44 1015.3
20260901211934 97 234 5.0 11.0 0.00 0.00 0.00 43 1015.5
20260901211529 97 189 3.0 8.0 0.00 0.00 0.00 42 1013.6
20260901211423 97 229 4.0 8.0 0.00 0.00 0.00 43 1015.5